Regional Weather Roundup
Issued by NWS Charleston, SC

Current Version | Previous Version | Text Only | Print | Product List | Glossary Off
Versions: 1 2 3 4 5 6 7 8 9 10 11 12 13 14 15 16 17 18 19 20 21 22 23 24 25 26 27 28 29 30 31 32 33 34 35 36 37 38 39 40 41 42 43 44 45 46 47 48 49 50

000
ASUS42 KCHS 280328
RWRCHS

REGIONAL WEATHER ROUNDUP
NATIONAL WEATHER SERVICE CHARLESTON SC
1100 PM EDT WED JUL 27 2016

NOTE: "FAIR" INDICATES FEW OR NO CLOUDS BELOW 12,000 FEET WITH NO
SIGNIFICANT WEATHER AND/OR OBSTRUCTIONS TO VISIBILITY.

NOT ALL STATIONS ARE QUALITY CONTROLLED. USE DATA WITH CAUTION...
ESPECIALLY DEWPOINT OBSERVATIONS.

SCZ027-030-031-034>040-042>050-280400-
...SOUTHEAST SOUTH CAROLINA...

CITY           SKY/WX    TMP DP  RH WIND       PRES   REMARKS
N CHARLESTON   CLEAR     84  78  82 S7        29.99R HX  95
WATERFRONT PRK   N/A     85  80  85 SW6       29.97R HX  99
MOUNT PLEASANT FAIR      84  79  84 CALM      29.99F HX  96
JOHNS ISLAND   FAIR      86  81  84 S7        30.00S HX 102
PINOPOLIS        N/A     84  79  84 VRB3      29.91R HX  96
MONCKS CORNER  FAIR      79  75  89 CALM      29.99R
SUMMERVILLE    FAIR      82  79  89 S3        30.00  HX  93
BEAUFORT MCAS  CLEAR     85  77  77 S7        30.00R HX  95
BEAUFORT ARPT  FAIR      86  77  74 SW7       30.00R HX  97
HILTON HEAD IS CLEAR     86  79  79 S9G15     30.02R HX  99
WALTERBORO     CLEAR     84  77  79 S5        30.00S HX  94
ALLENDALE      FAIR      82  73  74 CALM      29.99R

...SOUTHERN MIDLANDS AND PEE DEE...

CITY           SKY/WX    TMP DP  RH WIND       PRES   REMARKS
GEORGETOWN     NOT AVBL
KINGSTREE      FAIR      81  72  74 CALM      29.97S
ORANGEBURG     CLEAR     82  73  74 SW5       29.99R
BARNWELL       NOT AVBL
AIKEN          FAIR      81  68  65 SW3       30.03R
MANNING        FAIR      81  73  78 CALM      29.98S
COLUMBIA       CLEAR     87  70  56 W5        29.97R HX  92
SUMTER         CLEAR     84  73  70 S5        29.95S HX  91
FLORENCE       CLEAR     85  75  72 S7        29.96S HX  93
MYRTLE BEACH   CLEAR     84  73  70 SW6       30.00R HX  91
N MYRTLE BEACH CLEAR     84  80  88 SW9       29.98R HX  97

$$

GAZ063-065-086>088-099>101-113>116-118-119-134>141-150-280400-
...SOUTHEAST GEORGIA...

CITY           SKY/WX    TMP DP  RH WIND       PRES   REMARKS
SAVANNAH ARPT  PTCLDY    85  76  74 S9        30.00R HX  94
HUNTER AAF     CLEAR     84  79  84 S7        29.98R HX  97
FORT STEWART   CLEAR     82  72  71 SW2       29.99R
STATESBORO     CLEAR     84  75  73 SW3       30.01S HX  92
SYLVANIA       NOT AVBL
CLAXTON        FAIR      80  75  85 CALM      30.01S

...CSRA...CENTRAL AND FAR SOUTHEAST GEORGIA...

CITY           SKY/WX    TMP DP  RH WIND       PRES   REMARKS
THOMSON        NOT AVBL
AUGUSTA-BUSH   CLEAR     85  70  60 SW5       29.98R
AUGUSTA-DANIEL CLEAR     88  69  53 SW3       30.00R HX  92
SWAINSBORO     FAIR      82  70  65 W3        30.03R
VIDALIA        CLEAR     82  70  65 SW3       30.03R
EASTMAN        FAIR      83  62  48 SW3       30.05S
HAZLEHURST     FAIR      83  74  73 CALM      30.02S HX  90
ALMA           CLEAR     82  70  66 SW3       30.03R
WAYCROSS       CLEAR     85  74  69 SW5       30.04R HX  92
JESUP          FAIR      82  77  83 CALM      30.03S HX  91
BAXLEY         FAIR      82  75  78 CALM      30.03S
BRUNSWICK      CLEAR     86  79  79 S6        30.04S HX  99
SAINT SIMONS   CLEAR     85  77  77 S8        30.03R HX  95

$$

SCZ027-028-034-036>038-045-046-048>050-GAZ119-141-280400-
...LAKE AND SUPPLEMENTAL COASTAL OBSERVATIONS...

STATION/POSITION TIME  TEMP    WIND        PRES    WAVE   SWELL
                       AIR SEA DIR/SP/G            HT/PER HT/PER/DIR
                 (UTC) (F)     (DEG/KT/KT) (MB)    (FT/S) (FT/S/D)
WINYAH BAY       0200   84     250/  5     1014.0
LAKE MURRAY      0200   90     240/  9/ 13 1013.9R
ACE BASIN NERRS  0200   85        CALM     1015.0S
FORT PULASKI     0300      88  210/  9/ 13 1016.4
SAPELO ISLAND    0300   85     200/  9     1017.0R

$$

ANZ835-935-AMZ111-154-330-350-352-354-370-450-454-472-280400-
...C-MAN AND BUOY OBSERVATIONS...

STATION/POSITION TIME  TEMP    WIND        PRES    WAVE   SWELL
                       AIR SEA DIR/SP/G            HT/PER HT/PER/DIR
                 (UTC) (F)     (DEG/KT/KT) (MB)    (FT/S) (FT/S/D)
BUOY 41004       0250   86 86  220/ 16/ 17 1015.2R   3/ 4   2/170/ 8
BUOY 41008       0250   87 87  180/ 16/ 19 1016.3R   2/ 4
FOLLY BEACH CMAN 0300   86     220/ 12/ 15 1015.9R
CAPERS NEARSHORE 0208   85 84  230/ 14/ 17 1015.2R
FRIPP NEARSHORE  0308   87 87  210/ 17/ 21 1015.1R


STATION/POSITION TIME  TEMP    WIND        PRES    WAVE   SWELL
                       AIR SEA DIR/SP/G            HT/PER HT/PER/DIR
                 (UTC) (F)     (DEG/KT/KT) (MB)    (FT/S) (FT/S/D)
5E ST. MARYS GA  0301      86                N/A     3/ 4
FRYING PAN BUOY  0300   85 85  220/ 12/ 14 1015.3S
BUOY 41025       0250   83 85  260/ 14/ 16 1013.8S   3/ 6   2/130/ 8
CAPE LOOKOUT NC  0300   78     360/ 20/ 24 1015.5F
BUOY 41002       0250   84 85  260/ 12/ 14 1016.5R   3/ 6   2/260/ 6
BUOY 41010       0220   86 87  170/  6/  8 1018.5R
ST AUGUSTINE FL  0300   82 87  200/  5/  6 1018.7R


$$




USA.gov is the U.S. government's official web portal to all federal, state and local government web resources and services.